CXA578 KIAD-KBNA

Flight info

Callsign CXA578
Flight time N/A
Altitude 40000
Route RNLDI4 OTTTO Q80 DEWAK GROAT PASLY5
Aircraft B738/M-SDE2E3FGHIRWXY/L

Departure

Time 2026-05-07 17:50
Airport Washington Dulles International Airport (KIAD)

Arrival

Time N/A
Airport Nashville International Airport (KBNA)
Time Latitude Longitude Altitude Speed Heading
2026-05-07 17:18 38.95342 -77.45457 287 ft 0 kts 131°
2026-05-07 17:40 38.95345 -77.45461 287 ft 2 kts 131°
2026-05-07 17:40 38.95356 -77.45475 287 ft 2 kts 145°
2026-05-07 17:40 38.95369 -77.45484 286 ft 2 kts 159°
2026-05-07 17:40 38.95383 -77.45489 286 ft 2 kts 174°
2026-05-07 17:41 38.95398 -77.45489 286 ft 2 kts 189°
2026-05-07 17:41 38.95412 -77.45484 286 ft 2 kts 205°
2026-05-07 17:41 38.95420 -77.45479 285 ft 1 kts 213°
2026-05-07 17:41 38.95425 -77.45474 285 ft 0 kts 215°
2026-05-07 17:45 38.95406 -77.45499 286 ft 12 kts 237°
2026-05-07 17:45 38.95390 -77.45652 284 ft 18 kts 263°
2026-05-07 17:45 38.95283 -77.45712 283 ft 18 kts 181°
2026-05-07 17:45 38.95155 -77.45713 284 ft 17 kts 180°
2026-05-07 17:46 38.95036 -77.45715 286 ft 16 kts 182°
2026-05-07 17:46 38.94917 -77.45717 286 ft 17 kts 181°
2026-05-07 17:46 38.94786 -77.45718 288 ft 19 kts 181°
2026-05-07 17:46 38.94646 -77.45721 289 ft 21 kts 181°
2026-05-07 17:47 38.94490 -77.45725 291 ft 23 kts 181°
2026-05-07 17:47 38.94325 -77.45727 292 ft 24 kts 181°
2026-05-07 17:47 38.94144 -77.45729 292 ft 27 kts 180°
2026-05-07 17:47 38.93942 -77.45735 290 ft 29 kts 179°
2026-05-07 17:48 38.93742 -77.45745 289 ft 28 kts 189°
2026-05-07 17:48 38.93567 -77.45816 285 ft 11 kts 201°
2026-05-07 17:48 38.93563 -77.45818 285 ft 0 kts 201°
2026-05-07 17:49 38.93545 -77.45827 285 ft 9 kts 199°
2026-05-07 17:49 38.93470 -77.45871 283 ft 13 kts 228°
2026-05-07 17:50 38.93481 -77.46006 284 ft 18 kts 292°
2026-05-07 17:50 38.93593 -77.46365 289 ft 86 kts 289°
2026-05-07 17:50 38.93908 -77.47444 309 ft 166 kts 291°
2026-05-07 17:50 38.94333 -77.48820 1262 ft 167 kts 301°
2026-05-07 17:51 38.94859 -77.50044 2435 ft 161 kts 301°
2026-05-07 17:51 38.95345 -77.51305 3429 ft 163 kts 297°
2026-05-07 17:51 38.95556 -77.52725 4149 ft 175 kts 262°
2026-05-07 17:51 38.94894 -77.54079 4782 ft 193 kts 228°
2026-05-07 17:52 38.93958 -77.55412 5384 ft 209 kts 240°
2026-05-07 17:52 38.93304 -77.57122 6059 ft 222 kts 254°
2026-05-07 17:52 38.92806 -77.59034 6859 ft 233 kts 255°
2026-05-07 17:52 38.92307 -77.60989 7766 ft 239 kts 253°
2026-05-07 17:53 38.91757 -77.63040 8651 ft 247 kts 252°
2026-05-07 17:53 38.91199 -77.65071 9716 ft 247 kts 250°
2026-05-07 17:53 38.90630 -77.67133 10741 ft 249 kts 251°
2026-05-07 17:53 38.90038 -77.69295 11363 ft 266 kts 251°
2026-05-07 17:54 38.89335 -77.71530 12016 ft 280 kts 244°
2026-05-07 17:54 38.88281 -77.73692 12653 ft 296 kts 237°
2026-05-07 17:54 38.87020 -77.75840 13269 ft 310 kts 235°
2026-05-07 17:54 38.85690 -77.78031 14108 ft 316 kts 235°
2026-05-07 17:55 38.84347 -77.80286 15048 ft 318 kts 236°
2026-05-07 17:55 38.83048 -77.82519 16069 ft 317 kts 236°
2026-05-07 17:55 38.81743 -77.84798 16998 ft 318 kts 237°
2026-05-07 17:55 38.80470 -77.87082 17795 ft 320 kts 240°
2026-05-07 17:56 38.79472 -77.89605 18626 ft 320 kts 252°
2026-05-07 17:56 38.79087 -77.92374 19586 ft 320 kts 264°
2026-05-07 17:56 38.79243 -77.95212 20491 ft 325 kts 274°
2026-05-07 17:56 38.79781 -77.98019 21355 ft 328 kts 278°
2026-05-07 17:57 38.80461 -78.00804 22112 ft 331 kts 279°
2026-05-07 17:57 38.80941 -78.02650 22684 ft 330 kts 279°
2026-05-07 17:57 38.81902 -78.06364 23585 ft 333 kts 278°
2026-05-07 17:57 38.82612 -78.09161 24293 ft 334 kts 277°
2026-05-07 17:58 38.83326 -78.12006 24946 ft 336 kts 277°
2026-05-07 17:58 38.84029 -78.14842 25551 ft 338 kts 278°
2026-05-07 17:58 38.84708 -78.17717 26186 ft 337 kts 276°
2026-05-07 17:58 38.85225 -78.20618 26776 ft 333 kts 271°
2026-05-07 17:59 38.85454 -78.23531 27401 ft 328 kts 266°
2026-05-07 17:59 38.85501 -78.26430 27984 ft 328 kts 264°
2026-05-07 17:59 38.85476 -78.29335 28575 ft 327 kts 263°
2026-05-07 17:59 38.85435 -78.32242 29046 ft 330 kts 263°
2026-05-07 18:00 38.85393 -78.35203 29602 ft 330 kts 262°
2026-05-07 18:00 38.85209 -78.38122 30078 ft 330 kts 258°
2026-05-07 18:00 38.84839 -78.40994 30537 ft 331 kts 257°
2026-05-07 18:00 38.84373 -78.43876 30994 ft 333 kts 255°
2026-05-07 18:01 38.83869 -78.46817 31397 ft 336 kts 256°
2026-05-07 18:01 38.83369 -78.49731 31882 ft 337 kts 255°
2026-05-07 18:01 38.82879 -78.52640 32477 ft 334 kts 256°
2026-05-07 18:01 38.82397 -78.55512 33164 ft 329 kts 255°
2026-05-07 18:02 38.81466 -78.61140 34460 ft 320 kts 256°
2026-05-07 18:02 38.81010 -78.63887 35113 ft 314 kts 256°
2026-05-07 18:02 38.80555 -78.66616 35337 ft 313 kts 256°
2026-05-07 18:03 38.80098 -78.69363 35771 ft 320 kts 255°
2026-05-07 18:03 38.79629 -78.72166 35895 ft 326 kts 256°
2026-05-07 18:03 38.79151 -78.75011 36173 ft 330 kts 256°
2026-05-07 18:03 38.78673 -78.77877 36637 ft 328 kts 256°
2026-05-07 18:04 38.78196 -78.80740 36995 ft 325 kts 256°
2026-05-07 18:04 38.77719 -78.83595 37542 ft 324 kts 257°
2026-05-07 18:04 38.77244 -78.86437 37860 ft 325 kts 256°
2026-05-07 18:04 38.76768 -78.89280 38088 ft 326 kts 257°
2026-05-07 18:05 38.76289 -78.92123 38440 ft 327 kts 256°
2026-05-07 18:05 38.75805 -78.95004 38701 ft 328 kts 256°
2026-05-07 18:05 38.75324 -78.97856 38991 ft 328 kts 257°
2026-05-07 18:05 38.74844 -79.00697 39213 ft 330 kts 256°
2026-05-07 18:06 38.74352 -79.03607 39321 ft 334 kts 257°
2026-05-07 18:06 38.73860 -79.06506 39465 ft 337 kts 256°
2026-05-07 18:06 38.73367 -79.09417 39653 ft 338 kts 256°
2026-05-07 18:06 38.72863 -79.12383 39850 ft 339 kts 257°
2026-05-07 18:07 38.72362 -79.15324 39918 ft 340 kts 257°
2026-05-07 18:07 38.71363 -79.21188 39888 ft 338 kts 257°
2026-05-07 18:08 38.70365 -79.27065 39872 ft 337 kts 257°
2026-05-07 18:08 38.69398 -79.32951 39876 ft 338 kts 257°
2026-05-07 18:09 38.68428 -79.38856 39887 ft 338 kts 257°
2026-05-07 18:09 38.67459 -79.44735 39887 ft 337 kts 258°
2026-05-07 18:10 38.66487 -79.50591 39902 ft 339 kts 257°
2026-05-07 18:10 38.65500 -79.56509 39882 ft 338 kts 258°
2026-05-07 18:11 38.64517 -79.62392 39906 ft 341 kts 257°
2026-05-07 18:11 38.63533 -79.68269 39897 ft 339 kts 256°
2026-05-07 18:12 38.62509 -79.74174 39901 ft 339 kts 257°
2026-05-07 18:12 38.61457 -79.80020 39909 ft 338 kts 256°
2026-05-07 18:13 38.60396 -79.85880 39909 ft 340 kts 256°
2026-05-07 18:13 38.59331 -79.91758 39928 ft 339 kts 257°
2026-05-07 18:14 38.58267 -79.97628 39920 ft 338 kts 257°
2026-05-07 18:14 38.57217 -80.03419 39894 ft 337 kts 256°
2026-05-07 18:15 38.56150 -80.09284 39907 ft 341 kts 257°
2026-05-07 18:15 38.55074 -80.15163 39920 ft 339 kts 257°
2026-05-07 18:16 38.53997 -80.20996 39913 ft 339 kts 257°
2026-05-07 18:16 38.52905 -80.26894 39898 ft 341 kts 256°
2026-05-07 18:17 38.51808 -80.32785 39909 ft 341 kts 256°
2026-05-07 18:17 38.50717 -80.38644 39912 ft 341 kts 256°
2026-05-07 18:18 38.49616 -80.44527 39898 ft 341 kts 257°
2026-05-07 18:18 38.48512 -80.50406 39936 ft 342 kts 257°
2026-05-07 18:19 38.47407 -80.56270 39893 ft 340 kts 256°
2026-05-07 18:19 38.46294 -80.62170 39922 ft 343 kts 256°
2026-05-07 18:20 38.45174 -80.68092 39907 ft 342 kts 256°
2026-05-07 18:20 38.44054 -80.73986 39924 ft 343 kts 256°
2026-05-07 18:21 38.42931 -80.79887 39889 ft 341 kts 256°
2026-05-07 18:21 38.41800 -80.85801 39912 ft 347 kts 257°
2026-05-07 18:22 38.40660 -80.91762 39913 ft 343 kts 256°
2026-05-07 18:22 38.39521 -80.97684 39918 ft 345 kts 257°
2026-05-07 18:23 38.38383 -81.03603 39917 ft 346 kts 256°
2026-05-07 18:23 38.37232 -81.09553 39918 ft 346 kts 256°
2026-05-07 18:24 38.35910 -81.15431 39928 ft 345 kts 253°
2026-05-07 18:24 38.34453 -81.21272 39937 ft 347 kts 254°
2026-05-07 18:25 38.33003 -81.27147 39929 ft 348 kts 254°
2026-05-07 18:25 38.31565 -81.33017 39937 ft 346 kts 254°